Regional Weather Roundup
Issued by NWS Cleveland, OH

Home | Current Version | Previous Version | Text Only | Print | Product List | Glossary Off
Versions: 1 2 3 4 5 6 7 8 9 10 11 12 13 14 15 16 17 18 19 20 21 22 23 24 25 26 27 28 29 30 31 32 33 34 35 36 37 38 39 40 41 42 43 44 45 46 47 48 49 50

356
ASUS41 KCLE 260112
RWRCLE
OHIO REGIONAL WEATHER ROUNDUP
NATIONAL WEATHER SERVICE WILMINGTON, OH
900 PM EDT TUE JUL 25 2017

NOTE: "FAIR" INDICATES FEW OR NO CLOUDS BELOW 12,000 FEET WITH NO
SIGNIFICANT WEATHER AND/OR OBSTRUCTIONS TO VISIBILITY.

OHZ001>008-015>018-024>027-034-035-043-044-260200-
   NORTHWEST OHIO

CITY           SKY/WX    TMP DP  RH WIND       PRES   REMARKS
DEFIANCE       FAIR     N/A N/A N/A E3        30.19S
FINDLAY        FAIR      71  57  61 E7        30.18F
TOLEDO EXPRESS FAIR      69  57  65 E6        30.19S
TOLEDO EXEC    FAIR      70  62  76 E6        30.20F
LIMA           FAIR      68  63  84 E5        30.19F
$$

OHZ009>014-019>023-028>033-038-089-260200-
   NORTHEAST OHIO

CITY           SKY/WX    TMP DP  RH WIND       PRES   REMARKS
CLE-HOPKINS    FAIR      71  57  61 NE6       30.23S
CLE-LAKEFRONT  FAIR      70  58  65 NE6       30.20F
CUY CO. ARPT   PTCLDY    70  57  64 E5        30.22F
LORAIN-ELYRIA  FAIR      66  56  70 NE5       30.22S
ASHTABULA      FAIR      64  58  80 NE3       30.24S
AKRON-CANTON   FAIR      70  60  70 NE9       30.21S
WOOSTER        FAIR      68  61  78 N6        30.22R
MANSFIELD      FAIR      68  61  78 CALM      30.21S
YOUNGSTOWN     MOCLDY    66  56  70 N7        30.22R
$$

OHZ042-051>053-060>062-070>072-077>081-260200-
  SOUTHWEST OHIO

CITY           SKY/WX    TMP DP  RH WIND       PRES   REMARKS
CINC-COVINGTON FAIR      74  62  66 E10       30.17R
CINC-LUNKEN    FAIR      71  63  75 NE5       30.17S
HAMILTON       FAIR      72  63  73 E7        30.18S
DAYTON         FAIR      70  60  70 E6        30.20S
WRIGHT-PAT AFB FAIR      72  60  65 SE5       30.18S
DAYTON GENERAL FAIR      71  60  68 E5        30.18R
WILMINGTON     FAIR      67  62  84 E3        30.20R
$$

OHZ036-037-039>041-045>050-054>059-063>069-073>076-082>088-260200-
  CENTRAL AND SOUTHEAST OHIO

CITY           SKY/WX    TMP DP  RH WIND       PRES   REMARKS
COLUMBUS       FAIR      71  62  73 E7        30.18S
OSU AIRPORT    FAIR      71  61  70 E3        30.18S
BOLTON FIELD   FAIR      68  62  80 S3        30.19S
RICKENBACK AFB FAIR      69  62  78 SE5       30.18S
NEWARK         FAIR      68  61  78 CALM      30.19S
MARION         FAIR      69  61  75 NE3       30.20S
LANCASTER      FAIR      68  62  81 E3        30.20R
ZANESVILLE     FAIR      70  61  73 CALM      30.20S
NEW PHILLY     FAIR      68  63  84 CALM      30.21R
$$




USA.gov is the U.S. government's official web portal to all federal, state and local government web resources and services.